Tracking 25710 objects as of 5-Jul-2022
HD Live streaming from Space Station
objects crossing your sky now

FENGYUN 1C DEB

Track FENGYUN 1C DEB now!
10-day predictions


NORAD ID: 40688
Int'l Code: 1999-025EWU
Perigee: 857.7 km
Apogee: 1,070.4 km
Inclination: 98.9 °
Period: 104.2 minutes
Semi major axis: 7335 km
RCS: Unknown
Launch date: May 10, 1999
Source: People's Republic of China (PRC)
Launch site: Taiyaun Space Center, China (TSC)

Note: This is SATELLITE DEBRIS
aabbcc
Your satellite tracking list
Your tracking list is empty




NASA's NSSDC Master Catalog

Two Line Element Set (TLE):
1 40688U 99025EWU 22185.34174673  .00000160  00000-0  17266-3 0  9996
2 40688  98.9073  24.6965 0144943 175.8119 184.4286 13.81965418125392
Source of the keplerian elements: AFSPC